sat.trackr.live / text

‹ back to catalog

STARLINK-33948

NORAD 66147 · 2025-240B

PAYLOAD ACTIVE UNKNOWN

§ Identity

Operator
Country
US
Launch date
2025-10-25
Launch site
AFWTR
Launch vehicle
Mass (kg)
RCS (m²)

Purposes: comms

External: N2YO · Heavens-Above · Gunter

§ Orbital elements

Epoch: 2026-09-20T22:07:21.930240Z

Period
93.85 min
Inclination
53.1563°
Eccentricity
0.0001567
Mean motion
15.34405585 rev/d
Perigee alt
461.6 km
Apogee alt
463.8 km
Semi-major
6,840.8 km
B*
3.8122e-4
RAAN
233.5511°
Arg perigee
96.7911°
Mean anomaly
263.3270°
Rev number
5,196

§ Raw data

STARLINK-339481 66147U 25240B   26263.92178160  .00012528  00000+0  38122-3 0  99962 66147  53.1563 233.5511 0001567  96.7911 263.3270 15.34405585 51965

JSON: /api/v1/satellites/66147 · /tle

For live sub-satellite position, see the globe view (requires WebGL).

§ Visibility from observer

Set your observer location to see the next 7 days of passes ≥ 10°. The values pass through the URL so the page stays shareable.

No JS? Fill the form by hand. The geolocation button needs JavaScript.